Home > Weather > Thunder Bay > Past weeks

Flag for Canada Past Weather in Thunder Bay, Ontario, Canada — Yesterday and Last 2 Weeks

Now
66 °F

Passing clouds.


Feels Like: 66 °F
Forecast: 62 / 74 °F
Wind: 6 mph from Southwest

Location: Thunder Bay

Current Time: Jul 26, 2016 at 11:53:52 PM

Latest Report: Jul 26, 2016 at 11:00 PM


Visibility: 15 mi

Pressure: 29.93 "Hg

Humidity: 68%

Dew Point: 55 °F

Location of Thunder BayLocation

Past Weather in Thunder Bay — Graph

°F

Thunder Bay Temperature Yesterday

Maximum temperature yesterday: 82 °F (at 6:00 PM)
Minimum temperature yesterday: 64 °F (at 6:00 AM)
Average temperature yesterday: 73 °F

High & Low Weather Summary for the Past Weeks

 TemperatureHumidityPressure
High90 °F (Jul 21, 2:00 PM)100% (Jul 11, 10:00 PM)30.26 "Hg (Jul 11, 10:00 PM)
Low43 °F (Jul 16, 6:00 AM)31% (Jul 21, 4:00 PM)29.44 "Hg (Jul 13, 12:00 PM)
Average68 °F73%29.86 "Hg
* Reported Jul 11 10:00 PM — Jul 26 10:00 PM, Thunder Bay, Weather by CustomWeather, © 2016

Note: Actual official high and low records may vary slightly from our data, if they occured in-between our weather recording intervals... More about our weather records

Advertising

Thunder Bay Weather History for the Previous 24 Hours

Scroll right to see more
 ConditionsComfort  
Time TempWeatherWind HumidityBarometerVisibility
10:00 PM
Tue, Jul 26
73 °FPassing clouds.3 mph53%29.90 "Hg15 mi
9:00 PM79 °FPassing clouds.5 mph45%29.88 "Hg20 mi
8:00 PM84 °FPassing clouds.10 mph35%29.87 "Hg20 mi
7:00 PM86 °FScattered clouds.14 mph33%29.88 "Hg20 mi
6:00 PM86 °FScattered clouds.8 mph43%29.87 "Hg20 mi
5:00 PM86 °FBroken clouds.12 mph46%29.86 "Hg20 mi
4:00 PM86 °FBroken clouds.10 mph43%29.87 "Hg20 mi
3:00 PM82 °FPartly sunny.8 mph51%29.88 "Hg20 mi
2:00 PM84 °FBroken clouds.9 mph48%29.90 "Hg20 mi
1:00 PM82 °FBroken clouds.12 mph51%29.91 "Hg20 mi
12:00 PM81 °FPassing clouds.5 mph58%29.93 "Hg20 mi
11:00 AM77 °FPassing clouds.3 mph65%29.93 "Hg20 mi
10:00 AM73 °FScattered clouds.5 mph69%29.94 "Hg20 mi
9:00 AM70 °FPartly sunny.6 mph78%29.95 "Hg20 mi
8:00 AM64 °FPartly sunny.3 mph88%29.97 "Hg20 mi
7:00 AM59 °FPassing clouds.3 mph94%29.96 "Hg20 mi
6:00 AM59 °FClear.2 mph94%29.94 "Hg20 mi
5:00 AM61 °FClear.6 mph94%29.93 "Hg15 mi
4:00 AM61 °FClear.3 mph94%29.94 "Hg15 mi
3:00 AM61 °FClear.5 mph94%29.93 "Hg15 mi
2:00 AM61 °FClear.2 mph94%29.93 "Hg15 mi
1:00 AM63 °FClear.3 mph88%29.93 "Hg15 mi
12:00 AM63 °FClear.5 mph94%29.92 "Hg15 mi
11:00 PM
Mon, Jul 25
68 °FClear.5 mph78%29.91 "Hg15 mi
Weather by CustomWeather, © 2016

See weather overviewHow to use our weather pages